Regional Weather Roundup
Issued by NWS

Home | Current Version | Previous Version | Graphics & Text | Print | Product List | Glossary On
Versions: 1 2 3 4 5 6 7 8 9 10 11 12 13 14 15 16 17 18 19 20 21 22 23 24 25 26 27 28 29 30 31 32 33 34 35 36 37 38 39 40 41 42 43 44 45 46 47 48 49 50
000
ASUS43 KFSD 300010
RWRSD

WEATHER ROUNDUP FOR SOUTH DAKOTA
NATIONAL WEATHER SERVICE SIOUX FALLS SD
700 PM CDT WED JUL 29 2015

NOTE: "FAIR" INDICATES FEW OR NO CLOUDS BELOW 12,000 FEET WITH NO
SIGNIFICANT WEATHER AND/OR OBSTRUCTIONS TO VISIBILITY.


SDZ001>005-009-010-012>017-300100-
NORTHWEST AND NORTH CENTRAL SOUTH DAKOTA

CITY           SKY/WX    TMP DP  RH WIND       PRES   REMARKS
BUFFALO          N/A     81  36  19 W17       30.08F
FAITH            N/A     84  34  16 W16G26    30.11F
MOBRIDGE       SUNNY     84  47  27 NW15      30.04F
$$

SDZ012>016-024>037-041>051-057-063-072>074-300100-
SOUTHWEST AND SOUTH CENTRAL SOUTH DAKOTA

CITY           SKY/WX    TMP DP  RH WIND       PRES   REMARKS
RAPID CTY ARPT SUNNY     83  42  23 CALM      30.16F
PIERRE         SUNNY     86  38  18 W21       30.07S
CUSTER         SUNNY     73  35  25 NW7       30.31S
ELLSWORTH AFB  SUNNY     81  44  27 NE7       30.16F
PHILIP         SUNNY     85  46  25 NW6       30.11F
PINE RIDGE     SUNNY     84  47  27 CALM      30.17F
SPEARFISH      FAIR      77  41  27 N9        30.21F
WINNER         FAIR      86  43  22 NW10      30.12F
$$

SDZ004>011-016>023-039-040-300100-
NORTHEAST SOUTH DAKOTA

CITY           SKY/WX    TMP DP  RH WIND       PRES   REMARKS
ABERDEEN       SUNNY     83  45  26 NW18G32   30.03R
WATERTOWN      SUNNY     79  50  36 W17G24    30.04F
BROOKINGS      SUNNY     79  54  41 NW10      30.08S
SISSETON         N/A     80  55  42 NW10      29.97F
$$

SDZ017-020-022-023-036>040-048>070-300100-
SOUTHEAST SOUTH DAKOTA

CITY           SKY/WX    TMP DP  RH WIND       PRES   REMARKS
SIOUX FALLS    SUNNY     82  55  39 W6        30.07S
HURON          SUNNY     83  53  35 NW9       30.04F
CHAMBERLAIN    SUNNY     83  48  29 SW9       30.10S
MITCHELL       SUNNY     85  48  27 NW13      30.07S
YANKTON        SUNNY     82  55  39 W7        30.08F
$$

ABBREVIATIONS USED IN REMARKS
   TC - TEMPERATURE IN CELSIUS
  WCI - WIND CHILL INDEX
   HX - HEAT INDEX
  VSB - VISIBILITY




USA.gov is the U.S. government's official web portal to all federal, state and local government web resources and services.